This is the latest recevied weather packets stored in our database for station/object N9NDF. If no packets are shown the sender has not sent any weather packets the latest 10 day(s).
| Time | Temp. | Humidity | Pressure | Rain* | Wind** | Luminosity | Snow |
|---|---|---|---|---|---|---|---|
| 1777486135 | 16.11° C | 50% | 994 hPa | 0 mm | - | 234 W/m² | - |
| 1777486076 | 16.11° C | 51% | 994 hPa | 0 mm | - | 220 W/m² | - |
| 1777486021 | 16.11° C | 51% | 994 hPa | 0 mm | - | 194 W/m² | - |
| 1777485962 | 16.11° C | 51% | 993.9 hPa | 0 mm | - | 200 W/m² | - |
| 1777485894 | 15.56° C | 54% | 993.9 hPa | 0 mm | - | 910 W/m² | - |
| 1777485833 | 15.56° C | 50% | 993.9 hPa | 0 mm | - | 1108 W/m² | - |
| 1777485773 | 15.56° C | 51% | 993.9 hPa | 0 mm | - | 992 W/m² | - |
| 1777485709 | 15.56° C | 50% | 993.9 hPa | 0 mm | - | 910 W/m² | - |
| 1777485589 | 15° C | 51% | 993.8 hPa | 0 mm | - | 845 W/m² | - |
| 1777485529 | 15° C | 53% | 993.9 hPa | 0 mm | - | 1079 W/m² | - |
| 1777485469 | 15° C | 52% | 993.9 hPa | 0 mm | - | 1109 W/m² | - |
| 1777485407 | 15° C | 53% | 993.9 hPa | 0 mm | - | 1089 W/m² | - |
| 1777485347 | 14.44° C | 54% | 993.9 hPa | 0 mm | - | 1068 W/m² | - |
| 1777485287 | 15° C | 54% | 994 hPa | 0 mm | - | 1014 W/m² | - |
| 1777485227 | 15° C | 54% | 994 hPa | 0 mm | - | 233 W/m² | - |
| 1777485166 | 15° C | 55% | 994 hPa | 0 mm | - | 529 W/m² | - |
| 1777485107 | 15° C | 55% | 994 hPa | 0 mm | - | 370 W/m² | - |
| 1777485046 | 15° C | 54% | 994 hPa | 0 mm | - | 420 W/m² | - |
| 1777484986 | 15.56° C | 53% | 994 hPa | 0 mm | - | 268 W/m² | - |
| 1777484927 | 15.56° C | 53% | 993.9 hPa | 0 mm | - | 193 W/m² | - |
| 1777484897 | 15.56° C | 54% | 994 hPa | 0 mm | - | 180 W/m² | - |
| 1777484806 | 15.56° C | 54% | 994 hPa | 0 mm | - | 184 W/m² | - |
| 1777484746 | 15.56° C | 52% | 993.9 hPa | 0 mm | - | 518 W/m² | - |
| 1777484686 | 15° C | 52% | 993.9 hPa | 0 mm | - | 1086 W/m² | - |
| 1777484626 | 15° C | 53% | 993.9 hPa | 0 mm | - | 292 W/m² | - |
* Rain latest hour (hover to see other rain measurements)
** Current wind speed in m/s (hover to see current wind gust speed)